User: anonymous   Login
Location: Unspecified
(0.0000°N, 0.0000°E)
Time: 12:59:21
(UTC+00:00)
Language:

Tiros N - Orbit

View from above orbital plane
View from above orbital plane
View from above satellite
View from above satellite

Ground track
Ground track

The orbit data is extracted from the following two-line orbital elements,

1 11060U 78096A   20215.75903419 +.00000001 +00000-0 +21870-4 0  9999
2 11060 098.7359 272.9343 0009693 313.1347 046.9017 14.18273421374699
Epoch (UTC): 02 August 2020 18:13:00
Eccentricity: 0.0009693
inclination: 98.7359°
perigee height: 824 km
apogee height: 838 km
right ascension of ascending node: 272.9343°
argument of perigee: 313.1347°
revolutions per day: 14.18273421
mean anomaly at epoch: 46.9017°
orbit number at epoch: 37469

The dashed part of the orbit path shows where the satellite is in the earth's shadow,  

DLR